Date String (YYYY-MM-DD hh:mm:ss) UTC,Instrument flags,absolute air pressure of the measurement (hPa),sample flow rate (lpm),inlet stack bypass flow (lpm),air temperature of the measurement (°C),ambient temperature measured by the external sensor (°C),aerosol sample conditioner tube jacket temperature (°C),OPC LED temperature (°C),internal box temperature (°C),relative humidity of the measurement (%),span deviation,mass concentration of particles derived from Lorenz-Mie calculation of OPC scattering (μg/m³),mass concentration of particles derived from Lorenz-Mie calculation of OPC scattering (μg/m³),mass concentration of particles derived from Lorenz-Mie calculation of OPC scattering (μg/m³)
DateTimeUTC,F1_M11,P_M11,Q1_M11,Q2_M11,T1_M11,T2_M11,T3_M11,T4_M11,T5_M11,U1_M11,ZSPAN_M11,X0_M11,X2_M11,X1_M11
2024-06-05 08:00:00,SystemResetWarning,0827.0,4.99,000.00,030.8,030.2,000.0,039.0,032.5,014.4,0000.0,0010.64,0003.16,0001.62
2024-06-05 08:01:00,SystemResetWarning,0827.0,4.99,000.00,030.8,030.2,000.0,039.0,032.5,014.4,0000.0,0010.81,0003.15,0001.61
2024-06-05 08:02:00,SystemResetWarning,0827.0,5.01,000.00,030.9,030.2,000.0,039.1,032.5,014.4,0000.0,0011.03,0003.17,0001.62
2024-06-05 08:03:00,SystemResetWarning,0827.0,5.00,000.00,030.9,030.2,000.0,039.1,032.6,014.4,0000.0,0010.55,0003.20,0001.63
2024-06-05 08:04:00,SystemResetWarning,0827.0,5.00,000.00,030.9,030.3,000.0,039.1,032.5,014.5,0000.0,0010.27,0003.22,0001.61
2024-06-05 08:05:00,SystemResetWarning,0827.0,5.01,000.00,030.9,030.3,000.0,039.1,032.5,014.6,0000.0,0011.14,0003.22,0001.60
2024-06-05 08:06:00,SystemResetWarning,0827.0,5.00,000.00,030.9,030.3,000.0,039.1,032.5,014.6,0000.0,0012.51,0003.25,0001.58
2024-06-05 08:07:00,SystemResetWarning,0827.1,5.00,000.00,030.9,030.3,000.0,039.1,032.6,014.6,0000.0,0012.62,0003.28,0001.58
2024-06-05 08:08:00,SystemResetWarning,0827.1,4.99,000.00,030.9,030.3,000.0,039.2,032.6,014.6,0000.0,0012.95,0003.27,0001.59
2024-06-05 08:09:00,SystemResetWarning,0827.0,5.00,000.00,031.0,030.3,000.0,039.2,032.6,014.7,0000.0,0013.43,0003.27,0001.58
2024-06-05 08:10:00,SystemResetWarning,0827.0,5.01,000.00,031.0,030.3,000.0,039.2,032.6,014.6,0000.0,0013.27,0003.29,0001.57
2024-06-05 08:11:00,SystemResetWarning,0827.0,5.01,000.00,031.0,030.3,000.0,039.2,032.7,014.6,0000.0,0013.19,0003.27,0001.56
2024-06-05 08:12:00,SystemResetWarning,0827.1,4.98,000.00,031.0,030.3,000.0,039.2,032.6,014.5,0000.0,0013.53,0003.27,0001.55
2024-06-05 08:13:00,SystemResetWarning,0827.2,5.00,000.00,031.0,030.4,000.0,039.3,032.7,014.5,0000.0,0014.23,0003.26,0001.54
2024-06-05 08:14:00,SystemResetWarning,0827.2,5.01,000.00,031.0,030.4,000.0,039.3,032.7,014.5,0000.0,0014.07,0003.26,0001.52
2024-06-05 08:15:00,SystemResetWarning,0827.1,5.01,000.00,031.0,030.4,000.0,039.3,032.7,014.5,0000.0,0014.25,0003.23,0001.51
2024-06-05 08:16:00,SystemResetWarning,0827.1,4.99,000.00,031.1,030.4,000.0,039.3,032.7,014.4,0000.0,0013.90,0003.23,0001.52
2024-06-05 08:17:00,SystemResetWarning,0827.1,4.99,000.00,031.1,030.4,000.0,039.3,032.8,014.4,0000.0,0013.05,0003.20,0001.52
2024-06-05 08:18:00,SystemResetWarning,0827.1,4.99,000.00,031.1,030.4,000.0,039.3,032.7,014.5,0000.0,0013.43,0003.22,0001.52
2024-06-05 08:19:00,SystemResetWarning,0827.1,5.00,000.00,030.9,028.5,000.0,039.4,031.8,014.7,0000.0,0013.27,0003.25,0001.51
2024-06-05 08:20:00,SystemResetWarning,0827.0,5.01,000.00,030.4,026.6,000.0,039.4,030.8,015.1,0000.0,0012.37,0003.27,0001.51
2024-06-05 08:21:00,SystemResetWarning,0827.0,5.01,000.00,030.1,026.6,000.0,039.3,030.7,015.3,0000.0,0012.02,0003.22,0001.50
2024-06-05 08:22:00,SystemResetWarning,0827.1,5.00,000.00,030.0,027.0,000.0,039.1,030.9,015.4,0000.0,0011.93,0003.20,0001.50
2024-06-05 08:23:00,SystemResetWarning,0827.1,5.00,000.00,030.0,027.5,000.0,039.0,031.1,015.4,0000.0,0010.88,0003.21,0001.51
2024-06-05 08:24:00,SystemResetWarning,0827.1,5.00,000.00,030.0,027.9,000.0,038.9,031.3,015.4,0000.0,0010.34,0003.22,0001.51
2024-06-05 08:25:00,SystemResetWarning,0827.1,5.00,000.00,030.0,028.2,000.0,038.8,031.4,015.3,0000.0,0010.31,0003.20,0001.51
2024-06-05 08:26:00,SystemResetWarning,0827.1,4.99,000.00,030.0,028.5,000.0,038.8,031.5,015.4,0000.0,0010.87,0003.20,0001.51
2024-06-05 08:27:00,SystemResetWarning,0827.0,5.01,000.00,030.0,028.7,000.0,038.7,031.6,015.4,0000.0,0011.08,0003.26,0001.53
2024-06-05 08:28:00,SystemResetWarning,0827.0,5.01,000.00,030.1,028.9,000.0,038.7,031.7,015.5,0000.0,0010.43,0003.27,0001.53
2024-06-05 08:29:00,SystemResetWarning,0827.0,5.00,000.00,030.1,029.0,000.0,038.7,031.7,015.5,0000.0,0010.70,0003.25,0001.54
2024-06-05 08:30:00,SystemResetWarning,0827.0,5.01,000.00,030.1,029.2,000.0,038.6,031.7,015.5,0000.0,0012.10,0003.28,0001.56
2024-06-05 08:31:00,SystemResetWarning,0827.1,5.00,000.00,030.1,029.3,000.0,038.6,031.8,015.5,0000.0,0012.57,0003.30,0001.57
2024-06-05 08:32:00,SystemResetWarning,0827.1,5.00,000.00,030.2,029.4,000.0,038.6,031.9,015.5,0000.0,0012.54,0003.36,0001.59
2024-06-05 08:33:00,SystemResetWarning,0827.1,5.00,000.00,030.2,029.4,000.0,038.7,031.9,015.6,0000.0,0013.44,0003.40,0001.59
2024-06-05 08:34:00,SystemResetWarning,0827.0,5.00,000.00,030.2,029.5,000.0,038.7,032.0,015.5,0000.0,0013.89,0003.45,0001.60
2024-06-05 08:35:00,SystemResetWarning,0827.0,5.01,000.00,030.3,029.6,000.0,038.7,032.0,015.5,0000.0,0015.12,0003.47,0001.62
2024-06-05 08:36:00,SystemResetWarning,0827.0,4.99,000.00,030.3,029.6,000.0,038.7,032.0,015.5,0000.0,0015.67,0003.51,0001.64
2024-06-05 08:37:00,SystemResetWarning,0827.1,5.00,000.00,030.3,029.7,000.0,038.7,032.1,015.5,0000.0,0015.47,0003.56,0001.66
2024-06-05 08:38:00,SystemResetWarning,0827.0,5.00,000.00,030.4,029.7,000.0,038.7,032.1,015.5,0000.0,0014.95,0003.54,0001.67
2024-06-05 08:39:00,SystemResetWarning,0827.1,5.00,000.00,030.4,029.8,000.0,038.7,032.1,015.5,0000.0,0015.14,0003.62,0001.69
2024-06-05 08:40:00,SystemResetWarning,0827.1,5.00,000.00,030.4,029.8,000.0,038.7,032.2,015.5,0000.0,0014.64,0003.70,0001.70
2024-06-05 08:41:00,SystemResetWarning,0827.1,5.00,000.00,030.5,029.8,000.0,038.7,032.2,015.5,0000.0,0014.55,0003.69,0001.70
2024-06-05 08:42:00,SystemResetWarning,0827.1,5.00,000.00,030.5,029.9,000.0,038.8,032.2,015.5,0000.0,0014.49,0003.71,0001.71
2024-06-05 08:43:00,SystemResetWarning,0827.1,5.00,000.00,030.5,029.9,000.0,038.8,032.3,015.5,0000.0,0014.51,0003.72,0001.72
2024-06-05 08:44:00,SystemResetWarning,0827.2,5.00,000.00,030.5,029.9,000.0,038.8,032.3,015.4,0000.0,0015.00,0003.72,0001.74
2024-06-05 08:45:00,SystemResetWarning,0827.2,5.00,000.00,030.6,029.9,000.0,038.8,032.3,015.3,0000.0,0015.25,0003.71,0001.74
2024-06-05 08:46:00,SystemResetWarning,0827.2,5.00,000.00,030.6,029.9,000.0,038.8,032.3,015.3,0000.0,0014.17,0003.72,0001.74
2024-06-05 08:47:00,SystemResetWarning,0827.2,5.00,000.00,030.6,030.0,000.0,038.9,032.3,015.2,0000.0,0015.36,0003.75,0001.73
2024-06-05 08:48:00,SystemResetWarning,0827.2,5.00,000.00,030.6,030.0,000.0,038.9,032.3,015.1,0000.0,0015.39,0003.80,0001.74
2024-06-05 08:49:00,SystemResetWarning,0827.2,4.99,000.00,030.6,030.0,000.0,038.9,032.3,015.1,0000.0,0015.43,0003.80,0001.74
2024-06-05 08:50:00,SystemResetWarning,0827.2,5.00,000.00,030.6,030.0,000.0,038.9,032.4,015.1,0000.0,0015.77,0003.79,0001.73
2024-06-05 08:51:00,SystemResetWarning,0827.2,5.00,000.00,030.7,030.0,000.0,038.9,032.4,015.1,0000.0,0016.05,0003.72,0001.73
2024-06-05 08:52:00,SystemResetWarning,0827.2,5.00,000.00,030.7,030.0,000.0,038.9,032.4,015.1,0000.0,0015.35,0003.74,0001.74
2024-06-05 08:53:00,SystemResetWarning,0827.2,5.00,000.00,030.7,030.0,000.0,039.0,032.4,015.0,0000.0,0014.94,0003.72,0001.73
2024-06-05 08:54:00,SystemResetWarning,0827.2,4.99,000.00,030.7,030.0,000.0,039.0,032.4,015.1,0000.0,0015.89,0003.71,0001.72
2024-06-05 08:55:00,SystemResetWarning,0827.2,5.00,000.00,030.7,030.1,000.0,039.0,032.4,015.0,0000.0,0015.19,0003.78,0001.72
2024-06-05 08:56:00,SystemResetWarning,0827.2,5.00,000.00,030.7,030.1,000.0,039.0,032.4,015.0,0000.0,0014.92,0003.85,0001.72
2024-06-05 08:57:00,SystemResetWarning,0827.2,5.00,000.00,030.7,030.1,000.0,039.0,032.4,015.0,0000.0,0015.88,0003.91,0001.73
2024-06-05 08:58:00,SystemResetWarning,0827.2,5.00,000.00,030.8,030.1,000.0,039.0,032.4,015.0,0000.0,0015.17,0003.93,0001.74
2024-06-05 08:59:00,SystemResetWarning,0827.2,5.00,000.00,030.8,030.1,000.0,039.1,032.4,015.0,0000.0,0015.05,0003.88,0001.75
